Regional Weather Roundup
Issued by NWS

Home | Current Version | Previous Version | Graphics & Text | Print | Product List | Glossary On
Versions: 1 2 3 4 5 6 7 8 9 10 11 12 13 14 15 16 17 18 19 20 21 22 23 24 25 26 27 28 29 30 31 32 33 34 35 36 37 38 39 40 41 42 43 44 45 46 47 48 49 50
000
ASUS43 KOAX 220210
RWRNE

WEATHER ROUNDUP FOR NEBRASKA
NATIONAL WEATHER SERVICE OMAHA NE
900 PM CDT TUE MAR 21 2017

NOTES: SATELLITE DATA IS BEING USED TO AUGMENT CLOUD COVER ABOVE
       12000 FEET.
       "FAIR" INDICATES FEW OR NO CLOUDS BELOW 12,000 FEET WITH NO
       SIGNIFICANT WEATHER AND/OR OBSTRUCTIONS TO VISIBILITY.

  * THESE STATIONS DO NOT REPORT WEATHER SUCH AS RAIN...SNOW OR FOG.

NEZ001>004-019>022-054>056-220300-
NEBRASKA PANHANDLE

CITY           SKY/WX    TMP DP  RH WIND       PRES   REMARKS
SCOTTSBLUFF    CLOUDY    52  30  43 SE9       30.16R
ALLIANCE       PTCLDY    40  31  70 SE17G30   30.18R WCI  31
CHADRON        CLOUDY    39  32  76 SE13      30.19S WCI  31
KIMBALL        CLOUDY    50  32  49 SE24      30.15S
SIDNEY         CLOUDY    48  25  40 SE14G26   30.20R
$$

NEZ057>060-069>072-079>082-220300-
SOUTHWEST NEBRASKA

CITY           SKY/WX    TMP DP  RH WIND       PRES   REMARKS
NORTH PLATTE   CLOUDY    40  32  73 E15       30.32R WCI  32
IMPERIAL       CLOUDY    47  26  44 E20G25    30.23F
LEXINGTON      CLOUDY    42  32  69 E13       30.35R
MCCOOK         PTCLDY    44  33  65 E20G26    30.29R
OGALLALA       CLOUDY    43  33  68 E24G33    30.21F
$$

NEZ005>010-023>029-035>040-094-220300-
NORTH CENTRAL NEBRASKA

CITY           SKY/WX    TMP DP  RH WIND       PRES   REMARKS
VALENTINE      CLOUDY    31  26  82 E14       30.36R WCI  21
AINSWORTH      CLOUDY    31  29  90 E6        30.37S WCI  26
BROKEN BOW     CLOUDY    37  24  59 NE9       30.36  WCI  30
O`NEILL        CLOUDY    35  32  90 W3        30.41R
ORD            CLOUDY    36  26  67 NE9       30.39R WCI  29
THEDFORD       CLOUDY    35  29  78 E15       30.34R WCI  25
$$

NEZ041-046>049-061>064-073>077-083>087-220300-
SOUTH CENTRAL NEBRASKA

CITY           SKY/WX    TMP DP  RH WIND       PRES   REMARKS
GRAND ISLAND   CLOUDY    38  27  64 NE14      30.38R WCI  30
AURORA         PTCLDY    38  25  59 NE9       30.38R WCI  31
HASTINGS       CLOUDY    40  26  57 NE12      30.37R WCI  33
HEBRON         PTCLDY    42  28  58 NE13      30.34R
HOLDREGE       PTCLDY    40  32  71 NE12      30.34R WCI  33
KEARNEY *      CLOUDY    43  27  52 NE13      30.36R
YORK           PTCLDY    37  25  60 NE12      30.39R WCI  30
$$

NEZ011>018-030>034-042>045-220300-
NORTHEAST NEBRASKA

CITY           SKY/WX    TMP DP  RH WIND       PRES   REMARKS
NORFOLK        CLOUDY    39  25  57 N6        30.40R WCI  35
ALBION         CLOUDY    38  27  65 CALM      30.40R
BLAIR          MOCLDY    43  26  50 N7        30.38R
FREMONT        MOCLDY    42  25  50 N3        30.40R
TEKAMAH        CLOUDY    41  27  57 NE14      30.41R
WAYNE          CLOUDY    37  28  69 NE6       30.42R WCI  33
$$

NEZ050>053-065>068-078-088>093-220300-
SOUTHEAST NEBRASKA

CITY           SKY/WX    TMP DP  RH WIND       PRES   REMARKS
LINCOLN        CLEAR     38  26  62 NE10      30.39R WCI  31
OMAHA EPPLEY   MOCLDY    45  22  40 NE7       30.39R
BEATRICE       CLEAR     41  28  60 N12       30.35S
FALLS CITY     CLEAR     44  24  45 NE8       30.34R
NEBRASKA CITY  MOCLDY    43  22  44 NE12      30.36R
PLATTSMOUTH    CLOUDY    41  20  43 NE7       30.37S
$$

NEZ044-045-051>053-067-220300-
OMAHA AREA

CITY           SKY/WX    TMP DP  RH WIND       PRES   REMARKS
OMAHA EPPLEY   MOCLDY    45  22  40 NE7       30.39R
BLAIR          MOCLDY    43  26  50 N7        30.38R
FREMONT        MOCLDY    42  25  50 N3        30.40R
MILLARD        CLOUDY    46  28  48 N3        30.39S
OFFUTT AFB     CLOUDY    44  22  41 NE9       30.37S
PLATTSMOUTH    CLOUDY    41  20  43 NE7       30.37S
WAHOO          FAIR      37  26  63 N6        30.39R WCI  33
$$




USA.gov is the U.S. government's official web portal to all federal, state and local government web resources and services.